STARLINK-5213 (54093 NORAD) Tracking and Keplerian Element Data

This shows tracking and keplerian element data for the satellite.

Feedback or suggestion? Click here.




ElementValue
Catalog54093
NameSTARLINK-5213
Epoch Orbit549
Epoch Day325.33334491
Epoch Year2022
RAAN350.8813
Inclination53.2148
Eccentricity0.000424
Argument of Perigee3.1126
Mean Anonmoly348.8705
Mean Motion15.73170045
Decay Rate0.00030531
L11 54093U 22136AU 22325.33334491 .00030531 00000+0 22137-3 0 9998
L22 54093 53.2148 350.8813 0004240 3.1126 348.8705 15.73170045 5493



Live tracking and technical data element details for STARLINK-5213 (NORAD 54093). STARLINK-5213 can be tracked NOW for your location showing map with azimuth and elevation plus other details from your city location.







IsCatalogInMostPopularTable: catalog: 54093, numindb: 1
Update: records affected: 1



GetName: 54093 STARLINK-5213

Hit Count: updated at: Fri, 09 Dec 2022 19:06:33 GMT